Location: Maccacari
(45.1333°N, 11.1333°E)
Time: 19:48:26
(UTC+00:00)

Tiros 1 despin weight - Pass Details

Date: 21 January 2021
Orbit: 593 x 642 km, 48.2° (Epoch: 26 February)

Event Time Altitude Azimuth Distance (km) Brightness Sun altitude
Rises 21:11:39 0° 285° (WNW) 2,833 - -52.2°
Reaches altitude 10° 21:14:27 10° 267° (W) 1,924 - -52.7°
Maximum altitude 21:17:34 19° 222° (SW) 1,423 - -53.1°
Drops below altitude 10° 21:20:40 10° 177° (S) 1,915 - -53.6°
Sets 21:23:28 0° 159° (SSE) 2,814 - -54.0°
